When you browse on this site, cookies collect data to enhance your experience and personalize the content and advertising you see.
Visit our Privacy Policy to learn more. By continuing to use the site, you agree to this use of cookies and data.
  • In Slovakia
  • List of Countries
  • For 7 days
  • Water Temperature
  • Satellite Maps
  • Weather Map
  • Weather Widgets
  • user-avatar
    Login

    Hourly Weather Córdoba

    Today, 25 May, Saturday

    Time Temperature Precipitation Wind Pressure Humidity
    00:00 +14°C° 0 mm 2 mps 723 mmHg 35%
    01:00 +13°C° 0 mm 2 mps 723 mmHg 34%
    02:00 +13°C° 0 mm 2 mps 723 mmHg 33%
    03:00 +13°C° 0 mm 2 mps 722 mmHg 35%
    04:00 +13°C° 0 mm 2 mps 722 mmHg 37%
    05:00 +12°C° 0 mm 2 mps 722 mmHg 38%
    06:00 +13°C° 0 mm 2 mps 722 mmHg 40%
    07:00 +13°C° 0 mm 2 mps 722 mmHg 41%
    08:00 +14°C° 0 mm 2 mps 722 mmHg 40%
    09:00 +16°C° 0 mm 3 mps 722 mmHg 37%
    10:00 +19°C° 0 mm 4 mps 722 mmHg 34%
    11:00 +21°C° 0 mm 4 mps 722 mmHg 31%
    12:00 +22°C° 0 mm 5 mps 722 mmHg 31%
    13:00 +22°C° 0 mm 5 mps 722 mmHg 30%
    14:00 +23°C° 0 mm 6 mps 721 mmHg 30%
    15:00 +22°C° 0 mm 5 mps 721 mmHg 35%
    16:00 +20°C° 0 mm 5 mps 720 mmHg 39%
    17:00 +19°C° 0 mm 4 mps 720 mmHg 44%
    18:00 +18°C° 0 mm 4 mps 720 mmHg 47%
    19:00 +17°C° 0 mm 4 mps 720 mmHg 49%
    20:00 +15°C° 0 mm 4 mps 721 mmHg 51%
    21:00 +15°C° 0 mm 4 mps 721 mmHg 52%
    22:00 +16°C° 0 mm 3 mps 721 mmHg 54%
    23:00 +14°C° 0 mm 3 mps 721 mmHg 55%

    Tomorrow, 26 May, Sunday

    Time Temperature Precipitation Wind Pressure Humidity
    00:00 +14°C° 0 mm 3 mps 721 mmHg 56%
    01:00 +14°C° 0 mm 3 mps 721 mmHg 58%
    02:00 +14°C° 0 mm 3 mps 720 mmHg 59%
    03:00 +14°C° 0 mm 2 mps 720 mmHg 60%
    04:00 +14°C° 0 mm 2 mps 720 mmHg 61%
    05:00 +14°C° 0 mm 2 mps 720 mmHg 62%
    06:00 +14°C° 0 mm 1 mps 720 mmHg 62%
    07:00 +14°C° 0 mm 1 mps 720 mmHg 62%
    08:00 +14°C° 0 mm 1 mps 721 mmHg 62%
    09:00 +16°C° 0 mm 1 mps 721 mmHg 56%
    10:00 +18°C° 0 mm 2 mps 721 mmHg 49%
    11:00 +20°C° 0 mm 2 mps 722 mmHg 43%
    12:00 +20°C° 0 mm 2 mps 721 mmHg 41%
    13:00 +21°C° 0 mm 3 mps 721 mmHg 38%
    14:00 +22°C° 0 mm 3 mps 721 mmHg 36%
    15:00 +21°C° 0 mm 3 mps 721 mmHg 39%
    16:00 +19°C° 0 mm 2 mps 721 mmHg 42%
    17:00 +18°C° 0 mm 2 mps 721 mmHg 46%
    18:00 +17°C° 0 mm 2 mps 721 mmHg 48%
    19:00 +16°C° 0 mm 2 mps 722 mmHg 50%
    20:00 +15°C° 0 mm 1 mps 722 mmHg 53%
    21:00 +15°C° 0 mm 1 mps 722 mmHg 54%
    22:00 +14°C° 0 mm 1 mps 723 mmHg 54%
    23:00 +14°C° 0 mm 1 mps 723 mmHg 55%

    Day after tomorrow, 27 May, Monday

    Time Temperature Precipitation Wind Pressure Humidity
    00:00 +14°C° 0 mm 1 mps 723 mmHg 56%
    01:00 +14°C° 0 mm 1 mps 723 mmHg 56%
    02:00 +13°C° 0 mm 1 mps 723 mmHg 56%
    03:00 +13°C° 0 mm 1 mps 723 mmHg 57%
    04:00 +13°C° 0 mm 1 mps 722 mmHg 59%
    05:00 +12°C° 0 mm 1 mps 722 mmHg 60%
    06:00 +12°C° 0 mm 1 mps 723 mmHg 61%
    07:00 +13°C° 0 mm 1 mps 723 mmHg 62%
    08:00 +13°C° 0 mm 1 mps 723 mmHg 63%
    09:00 +14°C° 0 mm 1 mps 723 mmHg 63%
    10:00 +15°C° 0 mm 1 mps 724 mmHg 62%
    11:00 +15°C° 0 mm 1 mps 724 mmHg 61%
    12:00 +16°C° 0 mm 2 mps 723 mmHg 59%
    13:00 +17°C° 0 mm 2 mps 723 mmHg 57%
    14:00 +17°C° 0 mm 2 mps 722 mmHg 55%
    15:00 +17°C° 0 mm 2 mps 722 mmHg 59%
    16:00 +16°C° 0 mm 2 mps 722 mmHg 63%
    17:00 +16°C° 0 mm 2 mps 722 mmHg 67%
    18:00 +14°C° 0 mm 1 mps 722 mmHg 72%
    19:00 +12°C° 0 mm 0 mps 722 mmHg 77%
    20:00 +11°C° 0 mm 0 mps 722 mmHg 82%
    21:00 +11°C° 0 mm 0 mps 722 mmHg 83%
    22:00 +11°C° 0 mm 0 mps 723 mmHg 84%
    23:00 +11°C° 0 mm 0 mps 723 mmHg 84%

    28 May, Tuesday

    Time Temperature Precipitation Wind Pressure Humidity
    00:00 +11°C° 0 mm 0 mps 723 mmHg 84%
    01:00 +10°C° 0 mm 0 mps 723 mmHg 83%
    02:00 +10°C° 0 mm 0 mps 723 mmHg 83%
    03:00 +10°C° 0 mm 0 mps 723 mmHg 82%
    04:00 +10°C° 0 mm 0 mps 723 mmHg 81%
    05:00 +10°C° 0 mm 0 mps 722 mmHg 80%
    06:00 +10°C° 0 mm 0 mps 723 mmHg 78%
    07:00 +10°C° 0 mm 0 mps 723 mmHg 77%
    08:00 +11°C° 0 mm 0 mps 724 mmHg 75%
    09:00 +14°C° 0 mm 1 mps 724 mmHg 67%
    10:00 +16°C° 0 mm 1 mps 724 mmHg 59%
    11:00 +18°C° 0 mm 2 mps 724 mmHg 51%
    12:00 +19°C° 0 mm 2 mps 724 mmHg 49%
    13:00 +20°C° 0 mm 3 mps 723 mmHg 47%
    14:00 +20°C° 0 mm 3 mps 723 mmHg 46%
    15:00 +19°C° 0 mm 3 mps 722 mmHg 51%
    16:00 +18°C° 0 mm 3 mps 722 mmHg 57%
    17:00 +17°C° 0 mm 2 mps 722 mmHg 62%
    18:00 +16°C° 0 mm 2 mps 723 mmHg 68%
    19:00 +15°C° 0 mm 1 mps 723 mmHg 73%
    20:00 +14°C° 0 mm 1 mps 723 mmHg 79%
    21:00 +14°C° 0 mm 1 mps 723 mmHg 82%
    22:00 +12°C° 0 mm 0 mps 724 mmHg 84%
    23:00 +12°C° 0 mm 0 mps 724 mmHg 86%

    29 May, Wednesday

    Time Temperature Precipitation Wind Pressure Humidity
    00:00 +12°C° 0 mm 0 mps 723 mmHg 88%
    01:00 +11°C° 0 mm 0 mps 723 mmHg 89%
    02:00 +11°C° 0 mm 0 mps 723 mmHg 90%
    03:00 +11°C° 0 mm 0 mps 723 mmHg 90%
    04:00 +12°C° 0 mm 0 mps 723 mmHg 90%
    05:00 +12°C° 0 mm 0 mps 722 mmHg 90%
    06:00 +12°C° 0 mm 0 mps 723 mmHg 91%
    07:00 +13°C° 0 mm 1 mps 723 mmHg 91%
    08:00 +13°C° 0 mm 1 mps 723 mmHg 92%
    09:00 +15°C° 0 mm 1 mps 723 mmHg 87%
    10:00 +16°C° 0 mm 2 mps 723 mmHg 82%
    11:00 +17°C° 0 mm 2 mps 723 mmHg 76%
    12:00 +18°C° 0 mm 2 mps 723 mmHg 73%
    13:00 +18°C° 0 mm 2 mps 722 mmHg 70%
    14:00 +19°C° 0 mm 3 mps 722 mmHg 67%
    15:00 +18°C° 0 mm 2 mps 722 mmHg 70%
    16:00 +18°C° 0 mm 2 mps 722 mmHg 73%
    17:00 +17°C° 0 mm 2 mps 721 mmHg 77%
    18:00 +17°C° 0.1 mm 2 mps 722 mmHg 80%
    19:00 +16°C° 0.1 mm 2 mps 722 mmHg 84%
    20:00 +16°C° 0.1 mm 1 mps 722 mmHg 87%
    21:00 +15°C° 0 mm 1 mps 722 mmHg 88%
    22:00 +15°C° 0 mm 1 mps 722 mmHg 90%
    23:00 +13°C° 0 mm 0 mps 722 mmHg 91%

    30 May, Thursday

    Time Temperature Precipitation Wind Pressure Humidity
    00:00 +13°C° 0 mm 0 mps 722 mmHg 92%
    01:00 +13°C° 0 mm 0 mps 722 mmHg 94%
    02:00 +13°C° 0 mm 0 mps 722 mmHg 95%
    03:00 +14°C° 0 mm 1 mps 721 mmHg 94%
    04:00 +14°C° 0 mm 1 mps 721 mmHg 93%
    05:00 +14°C° 0 mm 1 mps 721 mmHg 93%
    06:00 +14°C° 0 mm 1 mps 722 mmHg 91%
    07:00 +14°C° 0 mm 1 mps 722 mmHg 89%
    08:00 +14°C° 0 mm 1 mps 722 mmHg 87%
    09:00 +16°C° 0 mm 1 mps 722 mmHg 78%
    10:00 +18°C° 0 mm 2 mps 722 mmHg 70%
    11:00 +19°C° 0 mm 3 mps 722 mmHg 61%
    12:00 +20°C° 0 mm 3 mps 722 mmHg 58%
    13:00 +21°C° 0 mm 3 mps 721 mmHg 55%
    14:00 +22°C° 0 mm 4 mps 720 mmHg 52%
    15:00 +21°C° 0 mm 4 mps 720 mmHg 57%
    16:00 +20°C° 0 mm 4 mps 720 mmHg 62%
    17:00 +19°C° 0 mm 3 mps 720 mmHg 67%
    18:00 +18°C° 0 mm 3 mps 720 mmHg 76%
    19:00 +16°C° 0 mm 2 mps 720 mmHg 84%
    20:00 +15°C° 0 mm 2 mps 720 mmHg 92%
    21:00 +15°C° 0 mm 2 mps 720 mmHg 92%
    22:00 +15°C° 0 mm 2 mps 720 mmHg 92%
    23:00 +15°C° 0 mm 2 mps 720 mmHg 92%
    Show more